Location: C.E.K. Mees Observatory
(42.7003°N, 77.4088°W)
Time: 06:32:43
(UTC-04:00)

Tiangong 1 - Pass Details

Date: 07 October 2017
Orbit: 293 x 320 km, 42.8° (Epoch: 21 October)

Event Time Altitude Azimuth Distance (km) Brightness Sun altitude
Rises 20:20:41 0° 261° (W) 2,029 6.1 -19.3°
Reaches altitude 10° 20:22:40 10° 261° (W) 1,196 4.6 -19.6°
Enters shadow 20:24:35 42° 258° (WSW) 454 1.8 -20.0°
